Lapse_Rate
6.6 6.6 6.6 6.6 6.6 6.6 6.6 6.5 6.5 6.6 6.5 6.6 6.7 6.8 6.8 6.8 6.7 6.8 6.9 7.1 7.2 7.0 6.9 6.7 6.6 6.5 6.4 6.4 6.4 6.1 5.6 5.7 6.3 6.7 7.0 7.5 8.1 7.6 7.1 7.4 7.7 7.0 7.3 7.0 7.6
6.5 6.7 6.7 6.7 6.7 6.8 6.8 6.7 6.7 6.6 6.6 6.6 6.8 6.9 7.0 7.0 7.0 7.0 6.9 7.1 7.3 7.1 6.9 6.9 6.8 6.7 6.5 6.4 6.2 6.0 6.0 6.2 6.5 6.8 7.3 7.4 7.2 7.9 7.2 7.1 8.0 7.2 7.3 7.1 7.6
6.7 6.7 6.8 6.9 6.8 6.7 6.6 6.7 6.7 6.7 6.8 6.7 6.7 6.7 6.6 6.6 7.1 7.2 7.1 7.1 7.2 7.1 7.1 6.9 6.9 6.9 6.6 6.5 6.2 6.1 6.4 6.5 6.4 6.9 7.2 7.0 6.8 7.1 6.7 7.8 7.6 7.6 7.4 7.5 7.9
6.6 6.6 6.6 6.7 6.7 6.7 6.7 6.7 6.7 6.6 6.6 6.5 6.4 6.2 6.2 6.5 6.8 6.9 7.1 7.2 7.2 7.2 7.1 7.0 6.8 6.8 6.7 6.4 6.6 6.0 6.0 6.1 6.2 6.8 7.2 7.1 6.5 6.8 6.8 6.5 7.6 7.8 7.3 7.3 8.0
6.6 6.6 6.6 6.7 6.6 6.5 6.6 6.7 6.7 6.5 6.5 6.3 6.2 6.3 6.5 6.4 6.5 6.6 6.9 7.0 7.1 7.1 7.1 7.0 6.7 6.0 6.4 6.4 6.3 6.2 6.2 6.3 6.4 6.6 6.7 6.8 6.5 6.5 6.9 7.3 7.3 7.6 7.3 7.1 7.7
6.5 6.6 6.6 6.6 6.7 6.7 6.6 6.6 6.6 6.4 6.5 6.3 6.3 6.4 6.2 6.1 6.4 6.5 6.6 6.8 6.9 6.8 6.7 6.7 6.7 6.6 6.8 6.7 6.5 6.7 6.6 6.3 6.3 6.4 6.7 6.6 6.4 6.5 6.9 7.5 7.0 7.4 7.5 7.2 7.6
6.7 6.7 6.7 6.6 6.6 6.7 6.6 6.5 6.5 6.5 6.6 6.5 6.5 6.6 6.4 6.3 6.4 6.4 6.5 6.5 6.5 6.5 6.5 6.5 6.5 6.6 6.4 6.7 6.6 6.2 6.5 6.6 6.7 6.8 6.9 7.0 6.4 6.4 6.7 7.4 6.8 7.0 7.7 7.4 7.7
6.7 6.6 6.6 6.6 6.6 6.6 6.6 6.5 6.4 6.5 6.6 6.6 6.5 6.5 6.5 6.5 6.6 6.6 6.6 6.4 6.4 6.3 6.4 6.4 6.5 6.7 6.9 6.7 6.9 6.6 6.4 6.4 7.4 7.2 7.3 7.2 6.5 7.1 6.7 6.9 7.2 7.1 6.9 7.7 7.1
6.6 6.6 6.6 6.6 6.6 6.5 6.5 6.5 6.5 6.6 6.7 6.7 6.6 6.4 6.1 6.6 6.6 6.5 6.4 6.3 6.2 6.3 6.3 6.3 6.4 6.5 6.3 6.1 6.4 7.0 7.0 7.2 7.4 7.7 7.6 7.4 6.6 6.9 7.2 7.0 7.3 7.3 6.9 7.7 7.3
6.6 6.7 6.7 6.7 6.6 6.5 6.5 6.5 6.6 6.5 6.5 6.6 6.7 6.5 6.1 6.5 6.7 6.5 6.4 6.3 6.3 6.1 5.8 6.0 5.9 6.0 6.4 6.7 6.9 7.2 7.1 7.1 7.2 7.7 8.0 8.0 7.0 7.1 7.1 7.2 7.2 7.3 7.1 7.4 7.2
6.6 6.7 6.6 6.6 6.5 6.6 6.6 6.7 7.0 7.0 6.6 6.5 6.6 6.8 6.8 6.7 6.9 6.8 6.5 6.4 5.9 6.1 6.2 6.3 6.3 6.3 6.4 6.7 6.9 6.9 7.0 6.7 6.8 7.2 7.5 7.7 7.6 7.5 7.4 7.3 7.4 7.5 7.3 7.0 7.0
6.5 6.6 6.5 6.5 6.5 6.6 6.7 6.6 6.6 6.6 7.0 6.8 6.9 6.9 7.1 7.0 7.0 6.4 6.4 6.1 6.2 6.4 6.5 6.6 6.5 6.4 6.2 6.7 6.8 7.0 7.2 7.1 7.0 7.2 7.8 7.6 7.7 8.0 7.7 7.4 7.8 7.2 7.2 6.6 7.1
6.5 6.6 6.4 6.4 6.3 6.4 6.6 6.6 6.7 6.8 6.7 6.9 6.9 7.1 7.0 7.2 7.1 6.9 6.6 6.5 6.2 6.2 6.3 6.2 6.3 6.2 6.5 6.6 7.0 7.2 7.5 7.5 7.5 7.5 7.7 7.7 7.8 8.1 8.2 7.6 7.7 7.3 7.3 7.1 7.3
6.4 6.5 6.3 6.3 6.3 6.3 6.5 6.7 6.7 6.9 6.8 6.8 6.9 6.9 7.1 7.1 6.6 7.1 6.9 7.0 7.1 6.6 6.3 6.2 6.6 6.7 6.8 7.1 7.3 7.2 8.1 8.1 7.9 7.9 7.7 8.0 7.9 8.2 8.6 8.4 7.9 7.2 7.3 6.9 7.1
6.4 6.3 6.2 6.2 6.0 6.3 6.4 6.6 6.8 6.9 7.3 6.8 6.8 7.0 7.0 6.9 6.9 6.7 7.1 7.0 7.0 6.9 6.6 6.9 7.0 6.8 6.8 7.3 7.5 7.6 7.8 8.1 8.1 8.4 8.3 8.2 8.3 8.0 8.7 9.1 7.9 7.1 7.3 7.3 7.0
6.4 6.3 6.3 6.2 6.1 6.3 6.5 6.7 6.8 6.7 7.4 7.0 6.9 6.8 6.9 7.1 7.1 7.2 7.3 7.1 7.0 7.0 7.1 7.1 6.8 6.6 6.9 7.0 7.2 7.3 7.3 7.8 7.6 8.0 7.7 8.1 7.9 7.2 7.7 8.1 8.8 7.7 7.2 7.3 7.0
6.5 6.5 6.5 6.3 6.2 6.3 6.4 6.5 6.7 6.8 7.3 7.0 6.8 6.8 6.9 7.2 7.2 7.3 7.6 7.7 7.2 6.5 6.6 7.0 6.7 6.6 6.9 6.8 7.1 7.3 6.6 6.3 6.4 7.0 7.6 7.8 6.9 6.8 7.7 7.9 8.3 7.8 7.4 7.2 7.2
6.4 6.6 6.5 6.7 6.2 6.2 6.4 6.3 6.6 7.2 7.0 6.8 6.8 7.2 7.1 7.1 7.2 7.3 7.6 7.7 7.1 6.8 6.6 6.6 6.5 6.6 6.6 6.4 6.5 7.0 7.0 6.1 5.9 6.5 5.9 5.8 5.7 6.3 5.7 7.1 8.3 7.9 7.7 6.9 7.2
6.2 6.4 6.5 6.7 6.5 6.1 6.3 6.0 6.5 6.4 6.5 6.7 7.1 7.2 7.4 7.1 6.9 7.0 7.4 7.4 7.0 6.8 6.2 6.4 6.9 7.0 6.8 6.9 6.6 6.9 6.6 5.5 5.2 5.1 5.9 5.2 5.6 6.5 6.9 6.9 6.1 7.4 6.3 7.4 7.5
6.0 6.2 6.3 6.4 6.6 6.4 6.3 6.2 6.1 6.3 6.6 6.6 6.4 7.0 6.8 6.9 6.9 6.9 7.2 7.1 7.1 6.8 6.5 6.5 6.4 7.0 7.2 7.0 6.9 6.7 6.6 5.6 5.2 5.8 5.8 6.9 7.7 7.8 7.6 7.2 7.4 7.6 7.7 7.7 7.5
6.0 6.1 6.1 6.3 6.5 6.6 6.1 6.2 6.1 6.1 6.2 6.2 6.4 6.5 6.4 6.5 6.5 6.7 7.1 6.9 7.0 6.9 6.8 6.6 6.7 7.0 7.0 7.4 6.9 6.9 6.8 6.7 6.0 5.7 6.2 7.1 7.4 7.6 7.5 7.3 7.4 7.8 7.7 7.6 7.6
6.0 5.9 6.0 6.1 6.4 5.9 6.0 6.2 6.0 6.2 5.8 5.7 6.1 6.4 6.2 6.0 6.3 6.4 6.8 6.6 6.5 6.6 6.6 6.4 6.2 6.5 7.5 7.6 7.2 6.9 7.1 6.9 6.2 5.9 6.0 6.1 7.1 7.4 7.1 7.4 7.6 7.4 7.5 7.4 7.5
5.9 5.9 5.9 5.9 6.2 6.2 5.9 6.0 5.8 6.0 6.1 5.6 5.6 5.9 6.3 6.0 5.9 6.5 6.4 6.4 6.4 6.4 6.5 6.4 6.6 6.6 7.4 7.5 7.6 7.2 7.3 7.1 7.0 6.6 6.4 5.9 7.1 7.1 7.4 7.5 7.6 7.4 7.1 7.1 7.1
5.8 5.5 5.8 6.0 6.2 6.2 5.7 6.0 5.7 5.5 5.9 5.9 5.9 5.8 5.8 5.9 6.1 6.2 6.3 6.3 6.2 6.1 6.2 6.2 6.0 6.2 6.6 7.3 7.3 7.4 7.2 7.2 7.0 6.8 7.0 7.3 7.3 7.5 7.4 7.3 7.6 7.4 7.3 7.3 7.3
5.8 5.7 5.7 5.6 5.7 5.7 5.6 5.8 5.9 5.6 5.5 5.6 5.9 5.5 5.4 5.4 5.8 6.2 6.1 6.2 6.3 6.2 6.2 6.0 6.4 6.5 6.7 7.1 7.5 7.4 7.4 7.3 7.3 7.2 7.1 7.2 7.2 7.2 7.2 7.0 7.5 7.5 7.5 7.4 7.3
5.7 5.8 5.9 5.7 5.8 5.8 5.7 5.8 5.5 5.6 5.5 5.5 5.3 5.5 5.5 5.4 5.2 5.4 6.1 5.9 5.9 6.2 6.3 6.3 6.3 6.5 7.2 7.5 7.5 7.6 7.4 7.3 7.3 7.3 7.3 7.3 7.2 7.2 7.3 7.1 7.4 7.4 7.3 7.2 7.0
5.9 6.0 5.8 5.9 6.0 6.0 6.0 5.7 5.6 5.5 5.5 5.2 5.1 5.5 5.7 5.6 5.8 6.0 6.3 6.5 6.4 6.3 6.3 6.2 6.1 6.3 6.8 7.5 7.7 7.7 7.6 7.3 7.2 7.1 7.4 7.3 7.2 7.1 7.2 7.1 7.1 7.1 7.0 6.9 6.9
Wind_Speed
12 13 13 14 14 15 16 17 17 18 19 21 21 21 22 24 29 13 4 3 8 15 21 11 6 8 7 4 8 6 5 11 17 17 18 18 9 10 9 9 4 3 7 20 22
12 13 13 14 15 16 17 18 19 19 20 21 21 21 21 21 13 6 2 5 9 13 11 9 7 2 4 6 5 7 8 14 13 14 15 18 15 9 5 24 6 5 14 22 21
13 13 14 15 16 17 18 19 20 21 21 21 21 21 20 19 6 6 3 4 8 11 9 8 8 6 8 8 9 9 17 13 16 17 16 18 18 3 6 6 4 10 14 21 19
13 14 15 16 18 19 20 21 21 21 21 20 20 20 20 5 4 4 2 5 11 13 13 6 6 4 4 6 11 16 17 16 16 17 18 18 17 16 18 14 4 8 16 18 16
14 15 16 17 18 19 20 20 21 23 21 19 18 16 9 4 6 4 3 9 12 8 8 7 9 4 7 7 8 14 12 16 16 14 14 14 17 15 13 11 9 7 2 17 15
14 15 16 17 18 20 21 21 21 23 20 15 13 12 6 2 2 2 6 8 7 8 8 6 7 10 8 9 10 10 15 14 11 14 15 16 14 16 15 9 6 6 8 12 15
13 15 17 18 20 21 22 22 21 20 14 11 8 5 6 4 2 5 7 7 6 6 7 9 7 8 10 10 11 9 14 12 12 12 14 12 18 23 16 16 11 12 11 7 16
14 15 17 19 21 24 24 23 20 13 10 6 6 6 6 3 5 7 6 9 4 5 7 8 7 11 9 10 13 14 15 13 7 16 18 12 26 18 11 15 17 14 12 12 15
15 16 17 19 21 24 27 26 18 9 8 6 5 4 1 3 4 7 4 7 9 8 4 9 5 7 8 10 9 10 11 14 13 13 10 19 23 13 14 15 18 10 12 12 10
16 17 18 20 22 25 29 31 4 6 8 8 6 4 4 11 13 10 5 4 4 10 12 7 7 7 9 9 9 13 15 16 15 13 11 13 20 15 11 16 14 12 16 12 12
17 18 18 20 23 26 16 3 5 2 4 7 9 6 9 14 8 5 2 6 10 12 10 8 8 9 16 16 15 15 14 17 18 18 18 17 15 15 15 11 13 14 12 13 13
17 17 18 20 23 26 8 5 6 4 9 8 7 6 10 2 8 6 1 6 12 11 13 9 12 12 14 14 12 16 18 16 15 16 15 17 19 16 12 13 12 7 6 10 8
17 19 21 21 24 9 8 7 5 6 5 2 5 6 3 2 6 9 3 11 11 10 15 11 12 10 16 14 14 15 16 15 17 14 17 14 18 17 13 14 13 10 9 8 12
17 19 22 30 4 5 3 7 7 2 3 6 3 2 4 5 4 2 3 3 7 13 11 8 8 13 12 14 14 12 17 14 11 15 8 13 12 16 16 16 16 13 9 6 9
19 20 22 11 6 5 4 9 6 3 3 3 4 1 7 5 9 3 5 5 12 12 11 11 12 9 11 13 15 15 4 9 16 14 11 15 9 12 13 17 17 13 11 11 8
19 21 22 2 4 5 8 8 4 4 1 4 1 7 12 8 9 5 11 6 8 12 12 11 1 4 7 13 15 12 6 8 10 5 9 12 3 6 9 16 15 9 10 10 12
21 21 9 9 5 9 9 4 4 4 0 5 7 11 12 7 12 11 13 7 9 11 13 11 9 11 6 14 6 6 1 4 3 1 5 8 5 11 18 19 3 18 13 13 13
24 20 6 6 7 8 4 3 4 7 9 10 11 16 12 3 7 12 16 7 11 13 12 11 9 12 9 10 7 13 4 2 4 2 3 5 5 4 18 16 14 18 13 15 10
30 3 3 3 1 3 5 4 6 8 8 10 13 8 9 11 10 12 13 7 9 14 10 9 6 14 6 5 3 7 4 6 3 4 3 4 5 9 17 3 9 15 9 9 9
6 6 2 2 2 3 3 7 5 7 7 7 6 7 11 13 9 12 10 9 7 12 11 3 8 11 6 6 4 3 8 3 1 4 5 5 12 7 7 7 10 12 10 9 10
3 3 3 2 4 3 4 4 4 7 5 6 8 10 12 12 12 11 6 7 8 13 13 11 5 11 8 3 7 1 3 2 2 5 3 3 6 9 8 8 11 11 9 8 8
3 3 3 3 3 3 3 3 2 5 6 5 4 7 7 9 9 11 8 6 7 10 10 7 4 7 7 5 1 6 5 4 2 4 4 3 5 8 9 12 12 10 8 7 7
3 3 3 3 3 5 2 2 5 4 5 4 6 4 5 7 5 7 8 5 4 7 7 6 5 7 8 2 2 5 9 7 6 4 10 3 4 4 9 10 9 9 8 7 8
3 2 3 4 2 4 7 7 3 5 5 6 9 8 9 8 8 6 11 4 8 6 3 1 5 9 9 12 10 8 8 6 4 1 2 1 5 9 9 9 9 8 8 7 7
3 3 2 1 2 3 6 8 10 7 4 4 5 5 5 5 12 11 14 15 10 4 3 5 6 11 14 18 6 7 7 7 4 4 3 6 7 7 6 4 9 9 9 8 7
2 2 1 3 4 7 3 6 8 7 8 7 7 9 8 10 12 15 13 10 7 5 10 7 6 13 15 14 5 7 6 7 5 6 2 5 7 6 6 7 8 9 8 8 8
2 2 0 2 4 5 7 5 6 4 6 5 5 6 9 10 10 13 12 12 13 14 12 4 4 6 5 14 11 3 5 6 4 7 6 3 4 5 7 8 7 7 7 8 8
Wind_Direction
346 344 345 340 339 339 338 332 330 333 330 327 327 326 329 327 318 273 38 23 335 331 318 275 226 248 221 259 251 237 244 240 244 261 274 282 286 148 325 297 197 191 47 144 140
343 345 338 335 335 334 331 327 328 328 327 327 324 323 325 328 306 63 78 342 330 334 324 341 338 297 240 215 241 209 227 246 267 261 271 294 312 121 126 244 246 139 100 125 144
342 336 335 336 333 330 327 324 323 321 322 322 320 319 319 325 281 64 136 328 318 315 306 297 292 261 263 249 219 230 238 272 273 276 288 296 294 17 45 314 227 196 140 140 154
338 337 335 333 332 328 324 321 318 316 319 319 316 318 316 293 37 57 141 304 299 284 287 308 281 264 242 248 241 255 251 254 257 268 277 282 297 292 129 262 306 352 151 148 165
338 335 333 331 326 320 317 317 317 316 317 313 310 317 320 242 44 139 241 278 289 328 305 328 294 291 256 281 269 261 268 270 272 271 281 282 282 289 281 250 113 114 17 159 167
334 330 327 325 322 319 317 318 318 317 316 307 301 309 254 340 327 306 308 312 320 325 324 315 340 320 291 265 268 293 304 294 299 289 275 280 267 276 266 261 145 157 197 170 173
331 330 328 327 323 319 315 315 315 315 308 302 281 278 287 44 295 302 304 286 300 304 305 318 329 305 319 303 266 290 278 280 264 262 272 273 267 247 263 269 190 174 202 230 178
335 332 330 327 322 318 314 312 312 303 292 293 269 272 292 140 307 264 287 289 187 267 274 292 299 283 273 282 295 278 268 268 249 236 232 242 253 250 264 258 258 172 187 210 196
338 333 329 327 322 317 312 306 300 275 274 261 255 287 282 144 288 346 284 299 318 277 252 275 294 262 292 262 275 256 257 259 263 246 232 209 252 240 247 251 247 200 178 208 205
342 338 334 329 324 318 314 300 289 260 229 239 258 269 234 349 335 317 274 309 291 306 266 219 225 273 266 252 272 301 314 310 306 300 286 239 232 241 238 240 249 230 185 204 198
348 343 336 330 326 317 330 286 328 153 311 289 312 293 298 332 311 220 299 290 247 258 281 209 284 279 296 302 306 313 294 288 290 294 297 291 288 229 228 239 256 257 188 194 174
349 341 335 330 324 319 292 41 49 331 310 286 258 275 261 41 301 163 340 286 332 324 307 333 309 336 333 310 287 286 285 278 286 284 274 282 281 274 223 227 232 237 205 199 177
348 343 335 327 321 305 61 45 346 329 270 272 221 287 325 309 309 303 342 325 307 298 354 317 323 328 321 306 300 288 286 281 278 282 293 287 268 270 250 228 192 204 234 204 172
344 341 335 326 312 342 59 6 335 322 280 150 187 157 223 235 250 39 9 299 316 338 333 299 296 308 316 305 331 301 275 294 296 293 263 267 271 245 242 226 202 195 201 160 192
339 336 329 341 309 355 6 344 327 243 312 92 124 79 253 239 278 153 183 236 284 328 301 318 343 330 311 331 320 293 10 315 295 262 270 265 275 258 274 250 180 199 175 176 185
334 331 329 133 244 29 325 315 266 235 149 128 106 337 338 334 345 286 305 187 254 314 323 340 344 323 339 301 300 272 344 2 318 303 273 253 188 289 270 276 181 178 196 183 141
328 327 314 305 345 335 316 275 268 263 223 53 343 331 321 335 333 346 319 47 15 341 339 333 19 326 279 341 334 18 116 20 307 276 248 13 123 252 317 307 204 173 198 178 132
323 319 236 280 319 326 283 271 268 29 30 11 343 303 286 6 332 321 327 26 30 356 324 352 335 358 324 329 303 310 120 99 298 303 288 156 213 325 271 279 31 57 173 119 116
322 213 232 94 321 297 293 264 19 24 9 340 321 344 351 353 355 347 330 40 29 8 356 324 310 309 318 318 328 323 41 153 254 259 251 77 335 260 237 127 107 72 64 77 91
324 284 171 119 222 287 269 282 24 31 358 326 308 333 339 335 340 337 325 49 11 11 344 313 299 294 344 255 166 287 148 302 138 344 36 138 49 42 57 59 91 88 77 69 69
279 271 120 199 244 242 261 339 15 9 6 326 335 320 321 319 339 320 327 68 26 358 325 323 309 294 298 351 332 225 299 130 234 15 28 19 26 34 20 95 84 85 87 93 94
281 261 149 241 261 214 287 31 351 313 318 263 284 287 311 342 312 310 335 8 23 0 332 359 280 289 306 28 21 266 270 313 89 39 329 289 50 44 46 71 79 88 90 85 92
256 291 174 248 276 332 14 292 193 308 310 317 301 306 314 306 305 322 327 60 355 11 8 341 334 321 339 168 287 355 349 357 356 105 48 51 306 61 72 85 92 97 99 98 94
280 266 161 210 266 279 322 304 302 164 271 270 279 297 278 302 305 293 305 348 348 325 162 236 266 288 284 324 315 313 332 345 341 94 75 232 38 31 36 106 103 108 110 111 117
222 249 49 216 211 316 305 296 297 299 200 256 281 236 303 302 317 283 325 328 323 155 244 11 285 306 316 301 330 309 318 324 340 359 359 327 67 45 28 40 120 122 122 125 127
242 244 119 302 325 291 261 268 310 292 294 282 303 333 332 301 295 306 317 314 293 318 351 321 285 309 304 289 246 302 17 357 10 20 341 21 68 89 21 88 119 128 133 134 125
157 152 255 190 210 239 263 337 348 343 279 289 327 320 305 312 320 292 283 276 270 287 296 278 289 334 279 339 315 214 17 3 358 41 344 31 105 24 62 49 35 125 140 141 136